Flight Track Log - Related Links

Times and Time Zones

All times are in EDT time to prevent confusion due to time zone crossing. See the GJS6252 flight status page for this flight to view local times or setup timezone preferences in your user account.


Time Position Orientation Groundspeed Altitude Reporting Facility
EDT Latitude Longitude Course Direction KTS MPH feet Rate Location/Type
Sat 03:48:49 PM 39.0333 -84.6667 142° Southeast 166 191 1,300  Level Cincinnati TRACON
Sat 03:49:19 PM 39.0167 -84.6500 142° Southeast 169 194 2,200 1,933 Climbing Cincinnati TRACON
Sat 03:50:19 PM 39.0333 -84.5833 72° East 221 254 4,200 1,805 Climbing Cincinnati TRACON
Sat 03:51:12 PM 39.0944 -84.5594 17° North 287 330 5,600 2,053 Climbing Indianapolis Center
Sat 03:52:13 PM 39.1725 -84.5328 15° North 288 331 8,100 2,400 Climbing Indianapolis Center
Sat 03:53:17 PM 39.2564 -84.5053 14° North 302 348 10,600 1,887 Climbing Indianapolis Center
Sat 03:54:17 PM 39.3517 -84.4739 14° North 342 394 12,000 1,366 Climbing Indianapolis Center
Sat 03:55:20 PM 39.4569 -84.4389 14° North 377 434 13,400 1,403 Climbing Indianapolis Center
Sat 03:56:21 PM 39.5681 -84.3917 18° North 414 476 14,900 1,452 Climbing Indianapolis Center
Sat 03:57:24 PM 39.6603 -84.2975 38° Northeast 417 480 16,400 1,597 Climbing Indianapolis Center
Sat 03:58:25 PM 39.7697 -84.1853 38° Northeast 423 487 18,200 1,623 Climbing Indianapolis Center
Sat 03:59:26 PM 39.8608 -84.0864 40° Northeast 423 487 19,700 1,279 Climbing Indianapolis Center
Sat 04:00:27 PM 39.9475 -83.9764 44° Northeast 426 490 20,800 1,016 Climbing Indianapolis Center
Sat 04:01:30 PM 40.0378 -83.8639 44° Northeast 439 505 21,800 1,016 Climbing Indianapolis Center
Sat 04:02:31 PM 40.1294 -83.7492 44° Northeast 446 513 22,900 1,008 Climbing Indianapolis Center
Sat 04:03:35 PM 40.2228 -83.6336 43° Northeast 452 520 23,900 878 Climbing Indianapolis Center
Sat 04:04:34 PM 40.3156 -83.5136 45° Northeast 462 532 24,700 738 Climbing Indianapolis Center
Sat 04:05:37 PM 40.4122 -83.3922 44° Northeast 473 544 25,400 677 Climbing Indianapolis Center
Sat 04:06:38 PM 40.5086 -83.2697 44° Northeast 477 549 26,100 738 Climbing Indianapolis Center
Sat 04:07:39 PM 40.6039 -83.1469 44° Northeast 482 555 26,900 732 Climbing Indianapolis Center
Sat 04:08:41 PM 40.7022 -83.0206 44° Northeast 489 563 27,600 912 Climbing Indianapolis Center
Sat 04:09:44 PM 40.8169 -82.8722 44° Northeast 488 562 28,800 1,065 Climbing Indianapolis Center
Sat 04:10:45 PM 40.9144 -82.7464 44° Northeast 486 559 29,800 1,016 Climbing Indianapolis Center
Sat 04:11:48 PM 41.0100 -82.6203 45° Northeast 481 554 30,900 1,056 Climbing Indianapolis Center
Sat 04:12:50 PM 41.1042 -82.4975 44° Northeast 474 545 32,000 1,131 Climbing Indianapolis Center
Sat 04:13:50 PM 41.1986 -82.3736 45° Northeast 471 542 33,200 1,140 Climbing Indianapolis Center
Sat 04:14:51 PM 41.2911 -82.2508 45° Northeast 465 535 34,300 976 Climbing Indianapolis Center
Sat 04:15:53 PM 41.3617 -82.1114 56° Northeast 451 519 35,200 864 Climbing Indianapolis Center
Sat 04:16:56 PM 41.3825 -81.9533 80° East 439 505 36,100 774 Climbing Indianapolis Center
Sat 04:17:57 PM 41.3356 -81.8175 115° Southeast 403 464 36,800 397 Climbing Indianapolis Center
Sat 04:19:12 PM 41.2506 -81.6408 123° Southeast 387 445 37,000 89 Climbing Cleveland Center
Sat 04:20:12 PM 41.1850 -81.5128 124° Southeast 409 471 37,000  Level Cleveland Center
Sat 04:21:12 PM 41.1192 -81.3961 127° Southeast 433 498 37,000  Level Cleveland Center
Sat 04:22:12 PM 41.0553 -81.2714 124° Southeast 428 493 37,000  Level Cleveland Center
Sat 04:23:12 PM 40.9872 -81.1333 123° Southeast 422 486 37,000  Level Cleveland Center
Sat 04:24:12 PM 40.9692 -80.9792 99° East 407 468 37,000  Level Cleveland Center
Sat 04:25:12 PM 40.9861 -80.8142 82° East 421 484 37,000  Level Cleveland Center
Sat 04:26:12 PM 41.0197 -80.6603 74° East 428 493 37,000  Level Cleveland Center
Sat 04:27:12 PM 41.1136 -80.5472 42° Northeast 417 480 37,000  Level Cleveland Center
Sat 04:28:12 PM 41.2136 -80.4450 38° Northeast 417 480 37,000  Level Cleveland Center
Sat 04:29:12 PM 41.3136 -80.3453 37° Northeast 446 513 37,000  Level Cleveland Center
Sat 04:30:12 PM 41.3861 -80.2150 53° Northeast 431 496 37,000 -200 Level Cleveland Center
Sat 04:31:12 PM 41.3958 -80.0572 85° East 406 467 36,600 -750 Descending Cleveland Center
Sat 04:32:12 PM 41.3786 -79.9025 98° East 397 457 35,500 -800 Descending Cleveland Center
Sat 04:33:12 PM 41.3650 -79.7392 96° East 419 482 35,000 -250 Descending Cleveland Center
Sat 04:34:12 PM 41.3492 -79.5847 98° East 426 490 35,000  Level Cleveland Center
Sat 04:35:12 PM 41.2750 -79.4642 129° Southeast 402 463 35,000  Level Cleveland Center
Sat 04:36:12 PM 41.1864 -79.3581 138° Southeast 403 464 35,000  Level Cleveland Center
Sat 04:37:12 PM 41.0997 -79.2522 137° Southeast 408 470 35,000  Level Cleveland Center
Sat 04:38:12 PM 41.0542 -79.1044 112° Southeast 420 483 35,000 -300 Level Cleveland Center
Sat 04:39:12 PM 41.0706 -78.9444 82° East 401 461 34,400 -700 Descending Cleveland Center
Sat 04:40:12 PM 41.0994 -78.7811 77° East 424 488 33,600 -733 Descending Cleveland Center
Sat 04:42:04 PM 41.1533 -78.4958 76° East 453 521 32,300 -763 Descending New York Center
Sat 04:43:05 PM 41.1864 -78.3036 77° East 485 558 31,400 -645 Descending New York Center
Sat 04:44:05 PM 41.2114 -78.1381 79° East 480 552 31,000 -203 Descending New York Center
Sat 04:45:03 PM 41.1950 -77.9653 97° East 458 527 31,000 -151 Level New York Center
Sat 04:46:04 PM 41.1719 -77.7947 100° East 463 533 30,700 -650 Descending New York Center
Sat 04:47:03 PM 41.2114 -77.6525 70° East 421 484 29,700 -1,059 Descending New York Center
Sat 04:48:03 PM 41.2986 -77.5508 41° Northeast 396 456 28,600 -829 Descending New York Center
Sat 04:49:06 PM 41.2789 -77.4219 101° East 329 379 28,000 -300 Descending New York Center
Sat 04:50:03 PM 41.1931 -77.3528 149° Southeast 303 349 28,000 -203 Level New York Center
Sat 04:51:04 PM 41.1169 -77.2600 137° Southeast 337 388 27,600 -639 Descending New York Center
Sat 04:52:05 PM 41.0953 -77.1203 102° East 357 411 26,700 -942 Descending New York Center
Sat 04:53:05 PM 41.0736 -76.9806 102° East 369 425 25,700 -1,300 Descending New York Center
Sat 04:54:05 PM 41.0497 -76.8381 102° East 379 436 24,100 -1,600 Descending New York Center
Sat 04:55:05 PM 41.0236 -76.6925 103° East 394 453 22,500 -1,550 Descending New York Center
Sat 04:56:05 PM 40.9950 -76.5581 106° East 399 459 21,000 -1,576 Descending New York Center
Sat 04:57:03 PM 40.9622 -76.4178 107° East 378 435 19,400 -1,424 Descending New York Center
Sat 04:58:03 PM 40.9344 -76.2947 107° East 374 430 18,200 -1,091 Descending New York Center
Sat 04:59:04 PM 40.9014 -76.1575 108° East 386 444 17,200 -1,289 Descending New York Center
Sat 05:00:04 PM 40.8683 -76.0122 107° East 386 444 15,600 -1,450 Descending New York Center
Sat 05:01:04 PM 40.8342 -75.8833 109° East 375 432 14,300 -1,240 Descending New York Center
Sat 05:02:05 PM 40.8039 -75.7661 109° East 375 432 13,100 -645 Descending New York Center
Sat 05:03:05 PM 40.7736 -75.6403 108° East 365 420 13,000 -50 Descending New York Center
Sat 05:04:06 PM 40.7397 -75.5011 108° East 365 420 13,000 -203 Level New York Center
Sat 05:05:03 PM 40.7094 -75.3731 107° East 370 426 12,600 -718 Descending New York Center
Sat 05:06:03 PM 40.6889 -75.2567 103° East 358 412 11,600 -992 Descending New York Center
Sat 05:07:04 PM 40.6617 -75.1508 109° East 326 375 10,600 -738 Descending New York Center
Sat 05:08:05 PM 40.6083 -75.0683 130° Southeast 293 337 10,100 -298 Descending New York Center
Sat 05:09:05 PM 40.5594 -74.9806 126° Southeast 293 337 10,000 -51 Descending New York Center
Sat 05:10:03 PM 40.5333 -74.8917 111° Southeast 293 337 10,000  Level New York Center
Sat 05:11:05 PM 40.5033 -74.7942 112° Southeast 300 345 10,000  Level New York Center
Sat 05:12:05 PM 40.4528 -74.6931 123° Southeast 306 352 10,000  Level New York Center
Sat 05:13:06 PM 40.4564 -74.5761 88° East 283 326 10,000 -555 Level New York Center
Sat 05:14:04 PM 40.4889 -74.4714 68° East 294 338 8,900 -1,210 Descending New York Center
Sat 05:15:05 PM 40.5194 -74.3664 69° East 304 350 7,600 -942 Descending New York Center
Sat 05:16:05 PM 40.5472 -74.2750 68° East 304 350 7,000 -300 Descending New York Center
Sat 05:17:05 PM 40.5772 -74.1675 70° East 299 344 7,000 -508 Level New York Center
Sat 05:18:03 PM 40.6028 -74.0839 68° East 271 312 6,000 -1,881 Descending New York Center
Sat 05:19:03 PM 40.6275 -74.0139 65° Northeast 217 250 3,300 -1,800 Descending New York Center
Sat 05:20:03 PM 40.6664 -73.9694 41° Northeast 192 221 2,400 -992 Descending New York Center
Sat 05:21:04 PM 40.7131 -73.9306 32° Northeast 177 204 1,300 -885 Descending New York Center
Sat 05:22:05 PM 40.7431 -73.9044 33° Northeast 161 185 600 5,899 Descending New York Center
Sat 05:23:03 PM 40.7792 -73.8789 28° Northeast 147 169 13,000 6,305 Climbing New York Center
Sat 05:24:03 PM 40.8172 -73.8531 27° Northeast 147 169 13,000  Level New York Center
Sat 05:25:04 PM 40.8533 -73.8272 28° Northeast 147 169 13,000  Level New York Center
Sat 05:26:04 PM 40.8917 -73.8017 27° Northeast 147 169 13,000  Level New York Center
Sat 05:27:04 PM 40.9064 -73.7911 28° Northeast 147 169 13,000  Level New York Center

Login

Don't have an account? Register now (free) for customized features, flight alerts, and more!